User: anonymous   Login
Location: Bergen
(60.3910°N, 5.3250°E)
Time: 21:15:44
(UTC+02:00)
Language:

Cosmos 1943 - Orbit

View from above orbital plane
View from above orbital plane
View from above satellite
View from above satellite

Ground track
Ground track

The orbit data is extracted from the following two-line orbital elements,

1 19119U 88039A   16124.52938080  .00000186  00000-0  12038-3 0  9990
2 19119  71.0035 242.0418 0012814 313.2478 121.1735 14.15058807444140
Epoch (UTC): 03 May 2016 12:42:18
Eccentricity: 0.0012814
inclination: 71.0035°
perigee height: 833 km
apogee height: 851 km
right ascension of ascending node: 242.0418°
argument of perigee: 313.2478°
revolutions per day: 14.15058807
mean anomaly at epoch: 121.1735°
orbit number at epoch: 44414

The dashed part of the orbit path shows where the satellite is in the earth's shadow,  

DLR